When you browse on this site, cookies collect data to enhance your experience and personalize the content and advertising you see.
Visit our Privacy Policy to learn more. By continuing to use the site, you agree to this use of cookies and data.
  • In Austria
  • List of Countries
  • For 7 days
  • Water Temperature
  • Satellite Maps
  • Weather Map
  • News
  • Weather Widgets
  • user-avatar
    Login

    Hourly Weather Lezhe

    Today, 21 February, Thursday

    Time Temperature Precipitation Wind Pressure Humidity
    00:00 +8°C° 0 mm 1 mps 743 mmHg 69%
    01:00 +7°C° 0 mm 2 mps 743 mmHg 66%
    02:00 +7°C° 0 mm 2 mps 743 mmHg 67%
    03:00 +7°C° 0 mm 2 mps 743 mmHg 68%
    04:00 +6°C° 0 mm 2 mps 743 mmHg 69%
    05:00 +6°C° 0 mm 2 mps 743 mmHg 71%
    06:00 +6°C° 0 mm 2 mps 743 mmHg 72%
    07:00 +5°C° 0 mm 3 mps 744 mmHg 72%
    08:00 +8°C° 0 mm 3 mps 744 mmHg 65%
    09:00 +10°C° 0 mm 3 mps 744 mmHg 58%
    10:00 +13°C° 0 mm 2 mps 744 mmHg 50%
    11:00 +14°C° 0 mm 2 mps 744 mmHg 46%
    12:00 +14°C° 0 mm 2 mps 744 mmHg 42%
    13:00 +16°C° 0 mm 2 mps 743 mmHg 37%
    14:00 +15°C° 0 mm 2 mps 743 mmHg 39%
    15:00 +15°C° 0 mm 2 mps 743 mmHg 41%
    16:00 +14°C° 0 mm 3 mps 743 mmHg 42%
    17:00 +13°C° 0 mm 2 mps 743 mmHg 47%
    18:00 +12°C° 0 mm 2 mps 743 mmHg 52%
    19:00 +9°C° 0 mm 2 mps 743 mmHg 57%
    20:00 +9°C° 0 mm 2 mps 743 mmHg 58%
    21:00 +8°C° 0 mm 2 mps 743 mmHg 59%
    22:00 +8°C° 0 mm 2 mps 743 mmHg 59%
    23:00 +7°C° 0 mm 2 mps 743 mmHg 60%

    Tomorrow, 22 February, Friday

    Time Temperature Precipitation Wind Pressure Humidity
    00:00 +7°C° 0 mm 2 mps 743 mmHg 61%
    01:00 +7°C° 0 mm 2 mps 743 mmHg 63%
    02:00 +6°C° 0 mm 2 mps 743 mmHg 63%
    03:00 +6°C° 0 mm 2 mps 742 mmHg 64%
    04:00 +6°C° 0 mm 2 mps 742 mmHg 65%
    05:00 +6°C° 0 mm 2 mps 742 mmHg 65%
    06:00 +6°C° 0 mm 2 mps 741 mmHg 64%
    07:00 +6°C° 0 mm 2 mps 741 mmHg 64%
    08:00 +8°C° 0 mm 1 mps 741 mmHg 58%
    09:00 +10°C° 0 mm 1 mps 740 mmHg 52%
    10:00 +11°C° 0 mm 0 mps 740 mmHg 46%
    11:00 +12°C° 0 mm 1 mps 740 mmHg 46%
    12:00 +12°C° 0 mm 1 mps 739 mmHg 46%
    13:00 +13°C° 0 mm 1 mps 739 mmHg 45%
    14:00 +13°C° 0 mm 1 mps 738 mmHg 48%
    15:00 +12°C° 0 mm 2 mps 738 mmHg 51%
    16:00 +12°C° 0 mm 2 mps 738 mmHg 54%
    17:00 +11°C° 0 mm 1 mps 738 mmHg 59%
    18:00 +10°C° 0 mm 1 mps 738 mmHg 64%
    19:00 +9°C° 0 mm 1 mps 738 mmHg 70%
    20:00 +9°C° 0 mm 1 mps 738 mmHg 70%
    21:00 +8°C° 0 mm 2 mps 738 mmHg 71%
    22:00 +7°C° 0 mm 2 mps 738 mmHg 71%
    23:00 +7°C° 0 mm 3 mps 738 mmHg 69%

    Day after tomorrow, 23 February, Saturday

    Time Temperature Precipitation Wind Pressure Humidity
    00:00 +6°C° 0 mm 4 mps 739 mmHg 67%
    01:00 +5°C° 0 mm 5 mps 739 mmHg 66%
    02:00 +2°C° 0 mm 6 mps 739 mmHg 57%
    03:00 0°C° 0 mm 7 mps 739 mmHg 49%
    04:00 -2°C° 0 mm 8 mps 739 mmHg 41%
    05:00 -4°C° 0 mm 9 mps 739 mmHg 42%
    06:00 -4°C° 0 mm 9 mps 739 mmHg 42%
    07:00 -5°C° 0 mm 10 mps 740 mmHg 43%
    08:00 -5°C° 0 mm 12 mps 740 mmHg 42%
    09:00 -4°C° 0 mm 13 mps 740 mmHg 40%
    10:00 -3°C° 0 mm 15 mps 740 mmHg 38%
    11:00 -3°C° 0 mm 15 mps 740 mmHg 37%
    12:00 -3°C° 0 mm 15 mps 740 mmHg 35%
    13:00 -1°C° 0 mm 15 mps 740 mmHg 33%
    14:00 -3°C° 0 mm 15 mps 740 mmHg 32%
    15:00 -2°C° 0 mm 14 mps 741 mmHg 32%
    16:00 -2°C° 0 mm 14 mps 741 mmHg 32%
    17:00 -4°C° 0 mm 13 mps 742 mmHg 34%
    18:00 -5°C° 0 mm 13 mps 742 mmHg 36%
    19:00 -6°C° 0 mm 13 mps 743 mmHg 38%
    20:00 -6°C° 0 mm 13 mps 743 mmHg 37%
    21:00 -6°C° 0 mm 12 mps 744 mmHg 37%
    22:00 -6°C° 0 mm 12 mps 744 mmHg 37%
    23:00 -6°C° 0 mm 11 mps 744 mmHg 37%

    24 February, Sunday

    Time Temperature Precipitation Wind Pressure Humidity
    00:00 -7°C° 0 mm 10 mps 744 mmHg 38%
    01:00 -6°C° 0 mm 9 mps 745 mmHg 39%
    02:00 -6°C° 0 mm 8 mps 745 mmHg 40%
    03:00 -6°C° 0 mm 8 mps 745 mmHg 41%
    04:00 -6°C° 0 mm 7 mps 744 mmHg 42%
    05:00 -6°C° 0 mm 7 mps 745 mmHg 42%
    06:00 -6°C° 0 mm 7 mps 745 mmHg 41%
    07:00 -6°C° 0 mm 8 mps 745 mmHg 41%
    08:00 -5°C° 0 mm 8 mps 745 mmHg 37%
    09:00 -2°C° 0 mm 8 mps 745 mmHg 32%
    10:00 -1°C° 0 mm 9 mps 745 mmHg 28%
    11:00 0°C° 0 mm 9 mps 745 mmHg 27%
    12:00 +1°C° 0 mm 9 mps 744 mmHg 27%
    13:00 +1°C° 0 mm 9 mps 744 mmHg 26%
    14:00 +1°C° 0 mm 9 mps 744 mmHg 28%
    15:00 +1°C° 0 mm 8 mps 744 mmHg 30%
    16:00 0°C° 0 mm 8 mps 744 mmHg 31%
    17:00 -1°C° 0 mm 8 mps 744 mmHg 35%
    18:00 -2°C° 0 mm 8 mps 744 mmHg 38%
    19:00 -4°C° 0 mm 8 mps 744 mmHg 42%
    20:00 -4°C° 0 mm 8 mps 745 mmHg 42%
    21:00 -5°C° 0 mm 8 mps 745 mmHg 42%
    22:00 -5°C° 0 mm 8 mps 745 mmHg 42%
    23:00 -4°C° 0 mm 7 mps 745 mmHg 42%

    25 February, Monday

    Time Temperature Precipitation Wind Pressure Humidity
    00:00 -4°C° 0 mm 7 mps 745 mmHg 41%
    01:00 -4°C° 0 mm 7 mps 746 mmHg 41%
    02:00 -4°C° 0 mm 6 mps 746 mmHg 43%
    03:00 -4°C° 0 mm 6 mps 746 mmHg 44%
    04:00 -3°C° 0 mm 6 mps 746 mmHg 46%
    05:00 -3°C° 0 mm 6 mps 746 mmHg 46%
    06:00 -2°C° 0 mm 6 mps 747 mmHg 47%
    07:00 -2°C° 0 mm 6 mps 747 mmHg 48%
    08:00 +1°C° 0 mm 6 mps 747 mmHg 45%
    09:00 +3°C° 0 mm 6 mps 747 mmHg 42%
    10:00 +5°C° 0 mm 6 mps 747 mmHg 39%
    11:00 +7°C° 0 mm 6 mps 747 mmHg 38%
    12:00 +8°C° 0 mm 6 mps 746 mmHg 37%
    13:00 +9°C° 0 mm 6 mps 746 mmHg 36%
    14:00 +9°C° 0 mm 6 mps 745 mmHg 37%
    15:00 +9°C° 0 mm 6 mps 745 mmHg 37%
    16:00 +8°C° 0 mm 6 mps 745 mmHg 38%
    17:00 +7°C° 0 mm 6 mps 745 mmHg 42%
    18:00 +4°C° 0 mm 6 mps 745 mmHg 45%
    19:00 +3°C° 0 mm 5 mps 745 mmHg 48%
    20:00 +3°C° 0 mm 5 mps 745 mmHg 48%
    21:00 +2°C° 0 mm 5 mps 745 mmHg 48%
    22:00 +2°C° 0 mm 5 mps 745 mmHg 48%
    23:00 +1°C° 0 mm 5 mps 745 mmHg 47%

    26 February, Tuesday

    Time Temperature Precipitation Wind Pressure Humidity
    00:00 +1°C° 0 mm 5 mps 744 mmHg 46%
    01:00 +1°C° 0 mm 5 mps 744 mmHg 45%
    02:00 +1°C° 0 mm 5 mps 744 mmHg 45%
    03:00 +1°C° 0 mm 5 mps 743 mmHg 45%
    04:00 0°C° 0 mm 5 mps 743 mmHg 45%
    05:00 +1°C° 0 mm 5 mps 743 mmHg 45%
    06:00 +1°C° 0 mm 5 mps 743 mmHg 45%
    07:00 +1°C° 0 mm 5 mps 743 mmHg 45%
    08:00 +3°C° 0 mm 5 mps 743 mmHg 42%
    09:00 +7°C° 0 mm 5 mps 743 mmHg 39%
    10:00 +9°C° 0 mm 5 mps 743 mmHg 36%
    11:00 +10°C° 0 mm 5 mps 742 mmHg 35%
    12:00 +12°C° 0 mm 4 mps 742 mmHg 35%
    13:00 +13°C° 0 mm 4 mps 741 mmHg 34%
    14:00 +13°C° 0 mm 4 mps 741 mmHg 36%
    15:00 +13°C° 0 mm 4 mps 741 mmHg 38%
    16:00 +13°C° 0 mm 4 mps 741 mmHg 40%
    17:00 +11°C° 0 mm 3 mps 741 mmHg 46%
    18:00 +9°C° 0 mm 3 mps 741 mmHg 52%
    19:00 +7°C° 0 mm 3 mps 741 mmHg 57%
    20:00 +7°C° 0 mm 3 mps 741 mmHg 58%
    21:00 +5°C° 0 mm 3 mps 741 mmHg 60%
    22:00 +5°C° 0 mm 3 mps 741 mmHg 61%
    23:00 +5°C° 0 mm 3 mps 741 mmHg 61%
    Show more